Home   Weather   Sedona   Past weeks

Flag for USA Past Weather in Sedona, Arizona, USA — Yesterday and Last 2 Weeks

75 °F


Feels Like: 77 °F
Forecast: 63 / 79 °F
Wind: No wind

Location: Sedona Airport

Current Time: Oct 27, 2016 at 7:46:28 PM

Latest Report: Oct 27, 2016 at 6:55 PM

Visibility: 10 mi

Pressure: 30.16 "Hg (26.03 "Hg at 1282m altitude)

Humidity: 25%

Dew Point: 37 °F

Location of SedonaLocation

Past Weather in Sedona — Graph


Sedona Temperature Yesterday

Maximum temperature yesterday: 81 °F (at 1:35 PM)
Minimum temperature yesterday: 59 °F (at 1:55 AM)
Average temperature yesterday: 69 °F

High & Low Weather Summary for the Past Weeks

High86 °F (Oct 22, 1:15 PM)94% (Oct 24, 10:55 PM)30.32 "Hg (Oct 24, 10:55 PM)
Low54 °F (Oct 20, 6:55 AM)10% (Oct 20, 11:35 AM)29.95 "Hg (Oct 17, 3:15 PM)
Average68 °F30%30.16 "Hg
* Reported Oct 12 6:15 PM — Oct 27 6:15 PM, Sedona, Weather by CustomWeather, © 2016

Note: Actual official high and low records may vary slightly from our data, if they occured in-between our weather recording intervals... More about our weather records


Sedona Weather History for the Previous 24 Hours

Scroll right to see more
Time TempWeatherWind HumidityBarometerVisibility
6:15 PM
Thu, Oct 27
75 °FClear.No wind25%30.15 "Hg10 mi
5:55 PM75 °FClear.No wind25%30.15 "Hg10 mi
5:15 PM77 °FSunny.7 mph24%30.15 "Hg10 mi
4:55 PM79 °FSunny.6 mph23%30.14 "Hg10 mi
4:35 PM79 °FSunny.8 mph23%30.14 "Hg10 mi
4:15 PM79 °FSunny.9 mph23%30.15 "Hg10 mi
3:55 PM81 °FSunny.6 mph21%30.15 "Hg10 mi
3:35 PM81 °FSunny.7 mph21%30.16 "Hg10 mi
3:15 PM81 °FSunny.5 mph21%30.17 "Hg10 mi
2:55 PM82 °FSunny.6 mph20%30.17 "Hg10 mi
2:35 PM81 °FSunny.6 mph21%30.17 "Hg10 mi
2:15 PM81 °FSunny.7 mph21%30.18 "Hg10 mi
1:55 PM82 °FSunny.8 mph20%30.18 "Hg10 mi
1:35 PM86 °FSunny.13 mph18%30.18 "Hg10 mi
1:15 PM81 °FSunny.5 mph21%30.19 "Hg10 mi
12:55 PM81 °FSunny.6 mph23%30.20 "Hg10 mi
12:35 PM79 °FSunny.No wind23%30.21 "Hg10 mi
12:15 PM79 °FSunny.5 mph23%30.22 "Hg10 mi
11:55 AM79 °FSunny.5 mph24%30.23 "Hg10 mi
11:35 AM77 °FSunny.3 mph26%30.24 "Hg10 mi
11:15 AM79 °FSunny.3 mph24%30.25 "Hg10 mi
10:55 AM77 °FSunny.3 mph26%30.26 "Hg10 mi
10:35 AM75 °FSunny.5 mph27%30.26 "Hg10 mi
10:15 AM73 °FSunny.3 mph31%30.27 "Hg10 mi
9:55 AM73 °FSunny.No wind31%30.27 "Hg10 mi
9:35 AM72 °FSunny.No wind31%30.27 "Hg10 mi
9:15 AM72 °FSunny.No wind31%30.27 "Hg10 mi
8:55 AM68 °FSunny.No wind33%30.26 "Hg10 mi
8:35 AM68 °FSunny.6 mph33%30.26 "Hg10 mi
8:15 AM66 °FSunny.No wind35%30.26 "Hg10 mi
7:55 AM64 °FSunny.7 mph37%30.26 "Hg10 mi
7:35 AM61 °FSunny.9 mph42%30.25 "Hg10 mi
7:15 AM64 °FSunny.9 mph37%30.25 "Hg10 mi
6:55 AM63 °FSunny.10 mph39%30.24 "Hg10 mi
6:35 AM63 °FClear.12 mph39%30.24 "Hg10 mi
6:15 AM63 °FClear.15 mph39%30.23 "Hg10 mi
5:55 AM63 °FClear.16 mph39%30.23 "Hg10 mi
5:35 AM63 °FClear.14 mph37%30.23 "Hg10 mi
5:15 AM63 °FClear.14 mph37%30.23 "Hg10 mi
4:55 AM63 °FClear.13 mph37%30.23 "Hg10 mi
4:35 AM63 °FClear.13 mph37%30.22 "Hg10 mi
4:15 AM63 °FClear.12 mph37%30.22 "Hg10 mi
3:55 AM63 °FClear.12 mph37%30.22 "Hg10 mi
3:35 AM63 °FClear.13 mph37%30.22 "Hg10 mi
3:15 AM63 °FClear.14 mph37%30.22 "Hg10 mi
2:55 AM63 °FClear.14 mph37%30.23 "Hg10 mi
2:35 AM63 °FClear.13 mph37%30.24 "Hg10 mi
2:15 AM63 °FClear.14 mph37%30.23 "Hg10 mi
1:55 AM63 °FClear.14 mph37%30.23 "Hg10 mi
1:35 AM63 °FClear.15 mph37%30.24 "Hg10 mi
1:15 AM63 °FClear.14 mph37%30.24 "Hg10 mi
12:55 AM64 °FClear.12 mph34%30.24 "Hg10 mi
12:15 AM64 °FClear.12 mph34%30.24 "Hg10 mi
11:55 PM
Wed, Oct 26
66 °FClear.14 mph32%30.24 "Hg10 mi
11:35 PM66 °FClear.14 mph32%30.24 "Hg10 mi
11:15 PM64 °FClear.12 mph34%30.25 "Hg10 mi
10:55 PM66 °FClear.13 mph32%30.25 "Hg10 mi
10:35 PM66 °FClear.9 mph35%30.25 "Hg10 mi
10:15 PM68 °FClear.13 mph33%30.25 "Hg10 mi
9:55 PM68 °FClear.10 mph33%30.25 "Hg10 mi
9:35 PM68 °FClear.10 mph33%30.25 "Hg10 mi
9:15 PM68 °FClear.9 mph33%30.24 "Hg10 mi
8:55 PM70 °FClear.9 mph33%30.23 "Hg10 mi
8:35 PM70 °FClear.9 mph33%30.22 "Hg10 mi
8:15 PM70 °FClear.12 mph33%30.22 "Hg10 mi
7:55 PM70 °FClear.9 mph33%30.22 "Hg10 mi
7:35 PM72 °FClear.14 mph31%30.21 "Hg10 mi
7:15 PM72 °FClear.15 mph31%30.20 "Hg10 mi
Weather by CustomWeather, © 2016

See weather overviewHow to use our weather pages